星链-31209 (STARLINK-31209 )

导读

STARLINK-31209是美国SpaceX公司星链(Starlink)星座的第二代卫星,于2024年1月29日发射入轨。作为星链全球卫星互联网项目的组成部分,它运行在近地轨道,配备星间激光通信终端,可实现高速星际数据传输。该卫星旨在为全球偏远、无网络覆盖区域提供低延迟、高速宽带互联网服务,助力星链完成全球无缝网络覆盖的组网目标,推动天地一体化网络建设。

Basic Information
目录编号:
58883
目录名称:
STARLINK-31209
国际标识:
2024-020H
轨道中心:
EARTH
卫星名称:
星链-31209
卫星全名:
星链-31209 (STARLINK-31209 )
卫星状态:
在轨 (已飞行956 天)
发射日期:
2024-01-29 UTC
国别 :
美国 (US)
星等 :
--
This satellite is enrolled in the Space Conjunction Data Service (SCDS) and the current flight risk assessment level is: High Risk
Orbit Information
数据来源 国际轨道数据
星历时间: 2026-09-09T13:17:49+0800
2天前
查看轨道信息
半长轴: 6840.9km
偏心率: 0.0001576
轨道倾角: 53.159°
近地点辐角 92.537°
升交点赤经 186.177°
平近点角 267.581°
近地点: 461.684km
远地点: 463.842km
周期: 93.849分钟
每日圈数: 15.343802
Detailed Information
固有亮度:
5
最大亮度:
0.3
卫星平台:
Starlink v2.0 mini
覆盖范围:
全球
运营商:
太空探索技术公司
运营商所在国:
美国
制造商(研发单位):
太空探索技术公司
制造商所在国:
美国
使用方式:
暂无
Satellite Introduction
星链(Starlink)计划是由太空探索技术公司(SpaceX)提出的一个巨型低轨卫星互联网星座项目,计划在2019年至2024年间在太空搭建由约1.2万颗卫星组成的“星链”网络,其中1584颗将部署在地球上空550千米处的近地轨道,并从2020年开始工作。该卫星仍在工作。
2D Orbit Map
3D Orbit Map
Orbit Altitude Analysis Chart
Orbit Inclination Analysis Chart
Orbit Comprehensive Analysis Chart
View Comprehensive Chart
Conjunction Data List
Event ID Objects TCA Miss Dist (km) Collision Risk Probability Collision Risk Index (CRI) Action
CDM_260913-220805-888306-915621
2026-09-13T
22:08:50+0000
0.259 km
中距离
4.506684E-4 高风险 0.88
CDM_260913-040405-888306-786121
2026-09-13T
04:04:27+0000
0.792 km
远距离
4.604192E-5 中风险 0.68
CDM_260913-203505-888306-915621
2026-09-13T
20:35:02+0000
1.436 km
极远距离
4.570514E-6 低风险 0.48
CDM_260912-074105-703105-888325
2026-09-12T
07:41:46+0000
2.093 km
极远距离
2.534391E-6 低风险 0.43
CDM_260912-192805-888306-786121
2026-09-12T
19:28:37+0000
2.037 km
极远距离
2.185204E-6 低风险 0.42
CDM_260913-234205-888306-915621
2026-09-13T
23:42:38+0000
1.925 km
极远距离
1.938665E-6 低风险 0.41
CDM_260914-044005-249305-888321
2026-09-14T
04:40:20+0000
2.636 km
极远距离
1.280223E-6 低风险 0.37
Miss Distance Evolution Trend with All Objects
Collision Probability Evolution Trend with All Objects